Hourly Data Report for April 21, 2003

TORONTO CITY
ONTARIO

43°40'00.000" N
79°24'00.000" W
112.50 m
6158355
71508
XTO

Download Data

Hourly Data (April 2003)
Hourly Data Report for April 21, 2003
TIME
LST
Temp Definition
°C
Dew Point Definition
°C
Rel Hum Definition
%
Precip. Amount Definition
mm

Wind Dir Definition
10's deg

Wind Spd Definition
km/h
Visibility Definition
km
Stn Press Definition
kPa
Hmdx Definition


Wind Chill Definition


Weather Definition


00:00 14.9 14.2 96   LegendMM LegendMM LegendMM 99.53     LegendNANA
01:00 12.9 12.0 94   LegendMM LegendMM LegendMM 99.57     LegendNANA
02:00 11.9 11.3 96   LegendMM LegendMM LegendMM 99.49     LegendNANA
03:00 11.5 11.0 97   LegendMM LegendMM LegendMM 99.48     LegendNANA
04:00 12.3 11.8 97   LegendMM LegendMM LegendMM 99.45     LegendNANA
05:00 12.1 11.2 94   LegendMM LegendMM LegendMM 99.40     LegendNANA
06:00 11.6 10.2 91   LegendMM LegendMM LegendMM 99.39     LegendNANA
07:00 11.9 10.6 92   LegendMM LegendMM LegendMM 99.35     LegendNANA
08:00 12.6 11.6 94   LegendMM LegendMM LegendMM 99.33     LegendNANA
09:00 14.0 12.8 92   LegendMM LegendMM LegendMM 99.32     LegendNANA
10:00 14.7 12.1 84   LegendMM LegendMM LegendMM 99.27     LegendNANA
11:00 14.7 12.7 88   LegendMM LegendMM LegendMM 99.22     LegendNANA
12:00 14.6 11.4 81   LegendMM LegendMM LegendMM 99.16     LegendNANA
13:00 15.0 10.2 73   LegendMM LegendMM LegendMM 99.12     LegendNANA
14:00 17.9 9.7 59   LegendMM LegendMM LegendMM 99.06     LegendNANA
15:00 16.5 8.2 58   LegendMM LegendMM LegendMM 99.05     LegendNANA
16:00 17.2 6.1 48   LegendMM LegendMM LegendMM 99.05     LegendNANA
17:00 16.2 6.0 51   LegendMM LegendMM LegendMM 99.08     LegendNANA
18:00 15.5 6.6 55   LegendMM LegendMM LegendMM 99.08     LegendNANA
19:00 14.9 6.7 58   LegendMM LegendMM LegendMM 99.10     LegendNANA
20:00 14.3 6.9 61   LegendMM LegendMM LegendMM 99.12     LegendNANA
21:00 13.2 6.9 66   LegendMM LegendMM LegendMM 99.13     LegendNANA
22:00 13.1 8.1 72   LegendMM LegendMM LegendMM 99.12     LegendNANA
23:00 13.0 8.4 74   LegendMM LegendMM LegendMM 99.12     LegendNANA

Notes on Data Quality.

Legend

  • E = Estimated
  • M = Missing
  • NA = Not Available*
  • [empty] = Indicates an unobserved value
Date modified: